Regional Weather Roundup
Issued by NWS Upton, NY

Current Version | Previous Version | Text Only | Print | Product List | Glossary On
Versions: 1 2 3 4 5 6 7 8 9 10 11 12 13 14 15 16 17 18 19 20 21 22 23 24 25 26 27 28 29 30 31 32 33 34 35 36 37 38 39 40 41 42 43 44 45 46 47 48 49 50
052 ASUS41 KOKX 230409 RWROKX REGIONAL WEATHER ROUNDUP NATIONAL WEATHER SERVICE NEW YORK NY 1200 AM EDT SUN JUL 23 2017 NOTE: "FAIR" INDICATES FEW OR NO CLOUDS BELOW 12,000 FEET WITH NO SIGNIFICANT WEATHER AND/OR OBSTRUCTIONS TO VISIBILITY. NYZ071-072-176-178-NJZ106-104-230500- NEW YORK CITY METRO AREA CITY SKY/WX TMP DP RH WIND PRES REMARKS Central Park LGT RAIN 73 72 96 CALM 29.77F FOG Bronx Bot Gard N/A 75 72 88 S3 29.77F LaGuardia APRT LGT RAIN 76 72 87 E9 29.74F Kennedy INTL LGT RAIN 75 75 100 E5 29.75F Breezy Point N/A 72 N/A N/A SE9 N/A Newark/Liberty HVY RAIN 73 70 90 NE8 29.74F FOG Teterboro RAIN 75 72 90 S6 29.74F FOG $$ NYZ177-179-078>081-230500- LONG ISLAND NEW YORK CITY SKY/WX TMP DP RH WIND PRES REMARKS Jones Beach N/A 72 N/A N/A SE10G16 N/A Matinecock PT N/A 75 N/A N/A E3 N/A Farmingdale LGT RAIN 77 74 90 SE5 29.75F MacArthur/ISP CLOUDY 77 70 79 CALM 29.76F Shirley CLOUDY 76 72 87 VRB3 29.76F Mt Sinai Harb N/A N/A N/A N/A S6 N/A Westhampton LGT RAIN 73 70 90 E5 N/A East Hampton FAIR 71 68 91 CALM 29.77F Montauk N/A 74 69 85 CALM 29.79F $$ NYZ052-065-067-230500- HUDSON VALLEY CITY SKY/WX TMP DP RH WIND PRES REMARKS White Plains NOT AVBL Larchmont Harb N/A 75 N/A N/A NE8 N/A Croton O-T Hud N/A 75 N/A N/A NE5 N/A Newburgh CLOUDY 72 70 94 NE6 29.80F Montgomery CLOUDY 72 68 87 NE3 29.78F Poughkeepsie CLOUDY 71 66 84 N3 29.77S Albany MOCLDY 70 65 84 NE3 29.81S $$ NJZ001-105-106-008-010-013-015-019>022-104-230500- NEW JERSEY CITY SKY/WX TMP DP RH WIND PRES REMARKS Newark/Liberty HVY RAIN 73 70 90 NE8 29.74F FOG Teterboro RAIN 75 72 90 S6 29.74F FOG Caldwell RAIN 72 69 90 SE3 29.76F FOG Somerville LGT RAIN 72 72 100 CALM 29.73F FOG Linden LGT RAIN 73 70 91 SE7 29.75S Perth Amboy N/A 72 N/A N/A E7 N/A Sussex LGT RAIN 72 71 97 CALM 29.77F Andover N/A 71 69 93 CALM 29.77F Trenton CLOUDY 73 71 93 N5 29.73R Millville CLOUDY 77 75 93 W8 29.76F Atlantic City CLOUDY 81 72 74 SW12 29.74F Wrightstown NOT AVBL Toms River CLOUDY 76 75 97 SW6 29.73F Belmar LGT RAIN 74 72 93 SE6 29.73F $$ PAZ047>061-062-071-230500- EASTERN PENNSYLVANIA CITY SKY/WX TMP DP RH WIND PRES REMARKS Philadelphia CLOUDY 81 70 69 W14 29.75S Allentown CLOUDY 71 68 90 CALM 29.76F Scranton CLOUDY 72 71 97 CALM 29.79F $$ CTZ002-004>006-009-010-012-RIZ004-006-007-MAZ004-011-015-230500- SOUTHERN NEW ENGLAND IN CT CITY SKY/WX TMP DP RH WIND PRES REMARKS Bradley INTL LGT RAIN 71 66 84 N3 29.79S Hartford LGT RAIN 75 69 81 CALM 29.78R Danbury CLOUDY 74 66 76 NE3 29.80S Wtrbury/Oxford CLOUDY 73 63 68 CALM 29.80F Bridgeport CLOUDY 77 69 76 NE3 29.76F Meriden CLOUDY 73 68 84 CALM 29.78F New Haven CLOUDY 75 68 78 NE3 29.77F Chester NOT AVBL Groton CLOUDY 73 66 78 CALM 29.78S Wilimantic CLOUDY 73 71 93 CALM 29.79S IN RI CITY SKY/WX TMP DP RH WIND PRES REMARKS Providence DRIZZLE 74 66 76 CALM 29.78F Block Island CLOUDY 74 70 87 S5 29.79F Westerly CLOUDY 73 68 84 CALM 29.79F IN MA CITY SKY/WX TMP DP RH WIND PRES REMARKS Boston CLOUDY 77 66 68 W7 29.78S Worcester CLOUDY 70 63 78 W3 29.82F Westfield CLOUDY 69 67 93 CALM 29.79F Provincetown CLOUDY 70 67 90 S7 29.80R Nantucket CLOUDY 66 65 96 CALM 29.78F $$ ANZ330-335-338-340-345-350-353-355-230500- COASTAL MARINE OBSERVATIONS STATION/POSITION TIME SKY/WX TEMP WIND PRES VSBY WAVE AIR SEA DIR/SP/G HT/PER (UTC) (F) (DEG/KT/KT) (MB) (MI) (FT/S) NY HARB ENTRANCE 0250 74 77 190/ 6/ 6 1007.9 2/ 9 20 S FIRE ISLAND 0350 75 77 210/ 14/ 19 1007.1 3/ 6 GREAT SOUTH BAY 0315 79 83 140/ 8/ 10 N/A 23 SSW MONTAUK P 0250 77 77 1008.7 3/10 15 E BARNEGAT LI 0330 79 N/A 3/ 6 HUDSON CANYON 0250 80 80 230/ 6/ 8 1007.7 3/ 7 KINGS POINT 0330 76 73 240/ 5/ 6 1007.6 EXECUTION ROCKS 0345 77 100/ 4/ 4 N/A CENTRAL LI SOUND NOT AVBL EASTERN LI SOUND NOT AVBL ROBBINS REEF 0324 110/ 6/ 10 1007.9 $$ >>>>>>>>>>>>>>>>>>>>>>>>>>>> KEY <<<<<<<<<<<<<<<<<<<<<<<<<<< > < > SKY/WX - Sky Condition/Present Weather < > TMP - Temperature in Fahrenheit < > DP - Dew Point in Fahrenheit < > RH - Relative Humidity in Percent < > WIND - Direction (from) and Speed in MPH < > PRES - Mean Sea Level Pressure (inches of Hg) < > WCI - Wind Chill Index < > VSB - VISIBILITY IN MILES < > HX - HEAT INDEX < > TC - TEMPERATURE IN CELSIUS < > VRB - VARIABLE WIND DIRECTION < > < >>>>>>>>>>>>>>>>>>>>>>>>>>>> KEY <<<<<<<<<<<<<<<<<<<<<<<<<<<

USA.gov is the U.S. government's official web portal to all federal, state and local government web resources and services.